Change the Weather History Date:

Wednesday, October 2, 2013

  Actual Average Record
Temperature  
Mean Temperature 49 °F 44 °F  
Max Temperature 51 °F 49 °F 57 °F (1954)
Min Temperature 46 °F 39 °F 29 °F (2002)
Degree Days  
Heating Degree Days 16 21  
Month to date heating degree days 40 42  
Since 1 July heating degree days 1169 1393  
Cooling Degree Days 0    
Month to date cooling degree days 0  
Year to date cooling degree days 0  
Moisture  
Dew Point 42 °F    
Average Humidity 77    
Maximum Humidity 87    
Minimum Humidity 69    
Precipitation  
Precipitation 0.01 in 0.16 in 1.57 in (1952)
Month to date precipitation 0.01 0.32  
Year to date precipitation 32.87 27.79  
Snow  
Snow 0.00 in 0.00 in 0.70 in (2010)
Month to date snowfall 0.0 0.0  
Since 1 July snowfall 0.0 0.0  
Since 1 September snowfall 0.0 0.0  
Snow Depth 0.00 in    
Sea Level Pressure  
Sea Level Pressure 29.36 in    
Wind  
Wind Speed 21 mph (ENE)    
Max Wind Speed 35 mph    
Max Gust Speed 43 mph    
Visibility 10 miles    
Events Rain    
T = Trace of Precipitation, MM = Missing Value Source: NWS Daily Summary

Daily Weather History Graph

Daily Weather History Graph

Search for Another Location

Airport or City:

Trip Planner

Search our weather history database for the weather conditions in past years. The results will help you decide how hot, cold, wet, or windy it might be!

Date:

Astronomy

Oct. 02, 2013 Rise Set
Actual Time 8:56 AM AKDT 8:22 PM AKDT
Civil Twilight 8:20 AM AKDT 8:58 PM AKDT
Nautical Twilight 7:37 AM AKDT 9:41 PM AKDT
Astronomical Twilight 6:53 AM AKDT 10:24 PM AKDT
Moon 6:24 AM AKDT (10/2) 7:16 PM AKDT (10/2)
Length of Visible Light 12h 38m
Length of Day
11h 26m
Waning Crescent, 5% of the Moon is Illuminated
Oct 2
Waning Crescent
Oct 4
New
Oct 11
First Quarter
Oct 18
Full
Oct 26
Last Quarter

Hourly Weather History & Observations

Time (AKDT) Temp. Dew Point Humidity Pressure Visibility Wind Dir Wind Speed Gust Speed Precip Events Conditions
12:53 AM 46.9 °F 37.9 °F 71% 29.45 in 10.0 mi SE 28.8 mph 36.8 mph N/A   Overcast
1:53 AM 46.9 °F 39.0 °F 74% 29.43 in 10.0 mi SE 29.9 mph 40.3 mph 0.00 in   Overcast
2:53 AM 46.9 °F 42.1 °F 83% 29.41 in 9.0 mi SE 26.5 mph 36.8 mph 0.00 in Rain Light Rain
3:53 AM 48.0 °F 42.1 °F 80% 29.41 in 10.0 mi SE 26.5 mph 35.7 mph 0.01 in   Overcast
4:53 AM 48.0 °F 41.0 °F 77% 29.38 in 10.0 mi ESE 20.7 mph 29.9 mph N/A   Overcast
5:53 AM 48.0 °F 42.1 °F 80% 29.37 in 10.0 mi ESE 10.4 mph 21.9 mph N/A   Overcast
6:53 AM 48.0 °F 41.0 °F 77% 29.36 in 10.0 mi ESE 15.0 mph - N/A   Overcast
7:01 AM 48.2 °F 41.0 °F 76% 29.36 in 10.0 mi East 12.7 mph - N/A   Overcast
7:11 AM 48.2 °F 41.0 °F 76% 29.36 in 10.0 mi East 15.0 mph 23.0 mph N/A   Overcast
7:53 AM 48.9 °F 42.1 °F 77% 29.37 in 10.0 mi East 18.4 mph 27.6 mph N/A   Overcast
8:53 AM 48.9 °F 42.1 °F 77% 29.36 in 10.0 mi East 19.6 mph 27.6 mph N/A   Overcast
9:53 AM 48.9 °F 42.1 °F 77% 29.35 in 10.0 mi East 18.4 mph 27.6 mph N/A   Overcast
10:53 AM 50.0 °F 42.1 °F 74% 29.36 in 10.0 mi East 25.3 mph 38.0 mph N/A   Overcast
11:14 AM 50.0 °F 42.8 °F 76% 29.35 in 10.0 mi East 19.6 mph 33.4 mph N/A   Overcast
11:53 AM 50.0 °F 43.0 °F 77% 29.34 in 10.0 mi East 25.3 mph 32.2 mph N/A   Overcast
12:53 PM 50.0 °F 42.1 °F 74% 29.34 in 10.0 mi East 23.0 mph 32.2 mph N/A   Overcast
1:53 PM 51.1 °F 42.1 °F 71% 29.34 in 10.0 mi East 24.2 mph 35.7 mph N/A   Overcast
2:53 PM 50.0 °F 43.0 °F 77% 29.33 in 10.0 mi ENE 19.6 mph 31.1 mph N/A   Overcast
3:53 PM 50.0 °F 43.0 °F 77% 29.33 in 10.0 mi ENE 13.8 mph 20.7 mph N/A   Overcast
4:36 PM 51.8 °F 42.8 °F 71% 29.33 in 10.0 mi NE 8.1 mph - N/A   Overcast
4:53 PM 51.1 °F 43.0 °F 74% 29.33 in 10.0 mi NE 6.9 mph - N/A   Overcast
5:53 PM 50.0 °F 44.1 °F 80% 29.33 in 10.0 mi NNE 13.8 mph - 0.00 in Rain Light Rain
6:32 PM 48.2 °F 44.6 °F 87% 29.32 in 10.0 mi NNE 16.1 mph - 0.00 in   Overcast
6:53 PM 48.9 °F 44.1 °F 83% 29.32 in 10.0 mi NNE 16.1 mph 23.0 mph 0.00 in   Overcast
7:53 PM 48.9 °F 43.0 °F 80% 29.34 in 10.0 mi NNE 15.0 mph - N/A   Overcast
8:53 PM 48.0 °F 43.0 °F 83% 29.34 in 10.0 mi NNE 17.3 mph - N/A   Overcast
9:53 PM 48.0 °F 43.0 °F 83% 29.36 in 10.0 mi North 13.8 mph - N/A   Overcast
10:53 PM 46.9 °F 42.1 °F 83% 29.37 in 10.0 mi North 17.3 mph - N/A   Overcast
11:53 PM 46.9 °F 42.1 °F 83% 29.38 in 10.0 mi NNE 17.3 mph - N/A   Overcast